Back to catalog

STARLINK-34843

AliveCommunicationsVLEO
NORAD 65201·PAYLOAD·🇺🇸 United States

Launched Aug 14, 2025 from Cape Canaveral Space Force Station

Loading…

Next Passes (next 24 hours)

TLE

FreshSource: CelesTrak SupGP

Epoch: Sep 14, 2026, 21:06 UTC

1 65201C 25176D   26257.87965278 -.00001945  00000+0 -57497-4 0  2572
2 65201  53.1593 349.8525 0001271  81.3761 300.0090 15.34375370    16

Track STARLINK-34843 in real time with AllMySat

Download on the App Store